Retour au catalogue

STARLINK-5544

ActifCommunicationsVLEO
NORAD 55757·PAYLOAD·🇺🇸 United States

Lancé Mar 3, 2023 depuis Vandenberg Space Force Base

Loading…

Prochains Passages (prochaines 24 heures)

TLE

FraisSource: CelesTrak SupGP

Époque: Sep 15, 2026, 02:42 UTC

1 55757C 23028S   26258.11298611  .00024619  00000+0  20632-2 0  2580
2 55757  70.0000 126.7928 0002687 274.5486 150.2770 14.98318790    15

Suivez STARLINK-5544 en temps réel avec AllMySat

Download on the App Store